星链-32031 (STARLINK-32031)

导读 | 星芒AI

STARLINK-32031 是 SpaceX 星链计划中的一颗低轨通信卫星,属于第三代星链卫星(Starlink V1.5 或 V2)。它被设计用于提供全球高速互联网服务,具备先进通信技术和激光链路,以提升网络性能和减少延迟。该卫星于2023年发射,运行在约550公里高度的近地轨道,是星链星座数千颗卫星之一,旨在扩大覆盖范围并增强连接稳定性,特别是在偏远和网络基础设施薄弱的地区。

基本信息
目录编号:
60142
目录名称:
STARLINK-32031
国际标识:
2024-120H
轨道中心:
EARTH
卫星名称:
星链-32031
卫星全名:
星链-32031 (STARLINK-32031)
卫星状态:
在轨 (已飞行541 天)
发射日期:
2024-06-27 UTC
国别 :
美国 (US)
星等 :
--
轨道信息
数据来源 国际轨道数据 AOE轨道数据
星历时间 2025-12-19T16:26:23+0800
19小时前
查看轨道信息
2025-12-18T20:00:00+0800
1天前
查看轨道信息
半长轴 6853.37km 6853.417km
偏心率 0.0001532 0.0003313
轨道倾角 53.163° 53.155°
近地点辐角 78.939° 89.881°
升交点赤经 333.262° 337.229°
平近点角 281.178° 256.087°
近地点 474.183km 473.011km
远地点 476.283km 477.553km
周期 94.106分钟 94.107分钟
每日圈数 15.301943 15.301784
详细信息
固有亮度:
5
最大亮度:
2.5
卫星平台:
Starlink V1.0
覆盖范围:
全球
运营商:
太空探索技术公司
运营商所在国:
美国
制造商(研发单位):
太空探索技术公司
制造商所在国:
美国
使用方式:
暂无
卫星简介
Starlink 计划是 SpaceX 推出的全球卫星互联网项目,通过发射低轨道卫星,为全球尤其是偏远地区提供高速、低延迟的互联网服务。自 2019 年起,Starlink 已部署数千颗卫星,旨在缩小全球数字鸿沟,推动互联网普及。该项目还为军事、航空等行业提供通信支持,带来广泛经济效益。
2D轨道图
3D轨道图
轨道高度分析图
轨道倾角分析图
轨道综合分析图
查看轨道综合分析图